Regional Weather Roundup
Issued by NWS Newport/Morehead, NC

Current Version | Previous Version | Graphics & Text | Print | Product List | Glossary Off
Versions: 1 2 3 4 5 6 7 8 9 10 11 12 13 14 15 16 17 18 19 20 21 22 23 24 25 26 27 28 29 30 31 32 33 34 35 36 37 38 39 40 41 42 43 44 45 46 47 48 49 50

000
ASUS42 KMHX 230422
RWRMHX
WEATHER ROUNDUP FOR EASTERN NORTH CAROLINA
NATIONAL WEATHER SERVICE NEWPORT/MOREHEAD CITY NC
1200 AM EDT WED JUL 23 2014

NOTE: "FAIR" INDICATES FEW OR NO CLOUDS BELOW 12,000 FEET
WITH NO SIGNIFICANT WEATHER AND/OR OBSTRUCTIONS TO VISIBILITY

NCZ015>017-031-032-045>047-102-103-230500-
NORTH COAST

CITY           SKY/WX    TMP DP  RH WIND       PRES   REMARKS
EDENTON        PTCLDY    76  74  96 S3        30.09F
ELIZABETH CITY PTCLDY    74  73  97 CALM      30.09F
KITTY HAWK     CLOUDY    76  74  95 S6        30.08F
MANTEO         NOT AVBL

$$

NCZ045>047-081-094-103-104-230500-
CENTRAL COAST

CITY           SKY/WX    TMP DP  RH WIND       PRES   REMARKS
FRISCO         MOCLDY    79  75  87 SW9       30.10F
SWANQUARTER      N/A     79 N/A N/A SW13      30.06S

$$

NCZ095-097-098-100-101-230500-
SOUTHERN COAST

CITY           SKY/WX    TMP DP  RH WIND       PRES   REMARKS
BEAUFORT       MOCLDY    79  75  87 SW10      30.09F
CEDAR ISLAND     N/A     77 N/A N/A S7        30.12F
JACKSONVILLE   MOCLDY    75  74  96 SW5       30.10S
NEWPORT        NOT AVBL
PINEY ISLAND   CLOUDY    76  75  97 S5        30.09F
WILMINGTON     PTCLDY    76  73  91 CALM      30.10S


$$

NCZ011>013-027>030-043-044-078>080-089-090>093-098-230500-
COASTAL PLAIN

CITY           SKY/WX    TMP DP  RH WIND       PRES   REMARKS
AHOSKIE        CLOUDY    72  70  96 CALM      30.11S VSB 1/2
CLINTON        CLOUDY    77  76  97 CALM      30.11S
ELIZABETHTOWN  CLEAR     75  74  98 S3        30.10S
GOLDSBORO      MOCLDY    76  76  99 CALM      30.08F
GREENVILLE     CLOUDY    75  73  94 CALM      30.11S
HAVELOCK       MOCLDY    75  73  93 SW5       30.10F
KENANSVILLE    PTCLDY    75  73  93 CALM      30.11S
KINSTON        MOCLDY    75  74  97 CALM      30.10F
NEW BERN       MOCLDY    77  74  90 SW5       30.10F
RICHLANDS      MOCLDY    75  72  88 SW5       30.10F
ROANOKE RAPIDS NOT AVBL
ROCKY MOUNT    CLOUDY    74  72  93 CALM      30.11R
WASHINGTON     CLOUDY    75  74  95 CALM      30.09F
WHITEVILLE     CLEAR     74  73  96 CALM      30.10S

$$

AMZ130-135-150-152-154-156-158-170-250-252-270-ANZ085-086-088-633-658-670-230500-
MARINE OBSERVATIONS

STATION/POSITION TIME  TEMP    WIND        PRES    WAVE   SWELL
                       AIR SEA DIR/SP/G            HT/PER HT/PER
                 (UTC) (F)     (DEG/KT/KT) (MB)    (FT/S) (FT/S)
CHESAPEAKE LIGHT NOT AVBL
BUOY 44014       0400   77 78  200/ 10/ 12 1018.8    2/ 8   2/ 8
DUCK             0400   78 73  200/  7/ 10 1018.1
2E DUCK          0400                        N/A     2/ 8
OREGON INLET     0400   76 80  260/  9/ 17 1019.1
BUOY 44095       0400      77                N/A     3/ 8
20E OREGON INLET NOT AVBL
HATTERAS CG      0400   78 82  210/  7/ 10 1019.6
DIAMOND BUOY     0400          VRB 16/ 17  1019.1    4/ 7   3/ 7
CAPE LOOKOUT     0400   78     220/  8/ 11 1018.8
BEAUFORT LAB     0400   79 80  210/  9/ 12 1018.6
30 SE NEW RIVER  0400   80 80  220/ 14/ 16 1019.5    4/ 7   2/ 7
5 SE WRIGHTSVILL 0400   76 81  210/ 12/ 14   N/A
BUOY 41002       0322   82 82  190/ 14/ 16 1021.2    3/ 9   2/ 9
BUOY 41004       0400   81 82  160/ 10/ 12 1018.6    3/ 7   2/ 7

$$


USA.gov is the U.S. government's official web portal to all federal, state and local government web resources and services.